STARLINK-4036, 52837

Orbit data source: Space-Track

STARLINK-4036, 52837 is a payload satellite owned by SpaceX/Seattle (US) in LEO that was launched on Fri, 17 Jun 2022 UTC via an FALCON 9 launch vehicle from the Air Force Eastern Test Range (AFETR). Payload-class satellites include a variety of spacecraft equipped with specific instruments for various scientific and technological missions. These include communications satellites like Starlink; space stations such as the ISS; scientific satellites like the Hubble; Earth observation satellites from companies like Planet Labs, Umbra, and HawkEye 360; GPS; miniature CubeSats for education and research; and military/defense satellites.

Loading next visibility...
Identifier
52837, 2022-062H
Orbit
LEO
Country
Flag of USUS
Related business
Manufacturer
SpaceX/Seattle
Mission
Operational Commercial Communications
Bus & Motor
STARLINK, Unknown motor
Mass
297 kg wet, ~275 kg dry
Launch date (UTC)
2022-06-17 (3 years ago)
Launch vehicle
FALCON 9
Launch site
Air Force Eastern Test Range (AFETR)
Object type
Payload
Rocket body
Debris
Shape & HBR
Box + 1 Pan, 10.1 m
Radar Cross Section
13.562 m², Large (>1 m²)

Expand to show TLE details & history
Last TLE update: 17 hours ago

TLE from 17 hours ago
0 STARLINK-4036
1 52837U 22062H   25349.35658544 -.00000147  00000-0  88759-5 0  9995
2 52837  53.2198  52.7102 0001516 113.7123 246.4028 15.08843596193056
Epoch: 2025-12-15T08:33Z
TLE epoch observation values (Epoch: 2025-12-15T08:33:28.982Z)
Latitude
-0.00003°
Longitude
-159.9169°
Altitude
541.05 km
Speed
7.593 km/s
True Right ascension
03h 30m 50s
True Declination
0° 00' 00"
Sunlit
Object was in full shadow at epoch
Visualization orbit readout
Latitude
Unknown
Longitude
Unknown
Altitude
Unknown
Speed
Unknown
Apparent Right ascension
Unknown
Apparent Declination
Unknown
Sunlit
N/A
Visualization observer readout
Local Sidereal Time
00:25:03
Azimuth
Unknown
Elevation
Unknown
Doppler factor
Unknown
Orbital elements
Apogee altitude
541.026 km
Perigee altitude
538.928 km
Semi-major axis
6,918.114 km
Eccentricity
0.00015
Inclination
53.2198°
RAAN
52.7102°
Arg. of periapsis
113.7123°
True anomaly
246.38688°
Mean anomaly
246.4028°
Eccentric anomaly
246.39484°
Mean motion
3.77191 °/min
Orbital period
95.44 mins
BSTAR
0.0000088759
Loading maneuver chart data...
Computing Atmospheric mass density...
Loading historical data...
Loading historical data...
Loading historical data...
Loading historical data...
Loading historical data...
Loading historical data...
Loading historical data...

Documentation

Showing up to 5 results
|